sat.trackr.live / text

‹ back to catalog

STARLINK-5996

NORAD 57227 · 2023-094K

PAYLOAD ACTIVE UNKNOWN

§ Identity

Operator
Country
US
Launch date
2023-07-07
Launch site
AFWTR
Launch vehicle
Mass (kg)
RCS (m²)

Purposes: comms

External: N2YO · Heavens-Above · Gunter

§ Orbital elements

Epoch: 2026-09-20T13:56:55.953024Z

Period
94.27 min
Inclination
43.0044°
Eccentricity
0.0002066
Mean motion
15.27573790 rev/d
Perigee alt
481.7 km
Apogee alt
484.5 km
Semi-major
6,861.2 km
B*
1.4629e-5
RAAN
13.3083°
Arg perigee
268.9777°
Mean anomaly
91.0838°
Rev number
17,688

§ Raw data

STARLINK-59961 57227U 23094K   26263.58120316  .00000140  00000+0  14629-4 0  99962 57227  43.0044  13.3083 0002066 268.9777  91.0838 15.27573790176883

JSON: /api/v1/satellites/57227 · /tle

For live sub-satellite position, see the globe view (requires WebGL).

§ Visibility from observer

Set your observer location to see the next 7 days of passes ≥ 10°. The values pass through the URL so the page stays shareable.

No JS? Fill the form by hand. The geolocation button needs JavaScript.